TimeCDT,TemperatureF,Dew PointF,Humidity,Sea Level PressureIn,VisibilityMPH,Wind Direction,Wind SpeedMPH,Gust SpeedMPH,PrecipitationIn,Events,Conditions,WindDirDegrees,DateUTC
12:52 AM,46.0,30.9,56,30.12,10.0,NW,9.2,-,N/A,,Clear,310,2013-11-02 05:52:00
1:52 AM,37.9,30.9,76,30.14,10.0,NW,5.8,-,N/A,,Clear,310,2013-11-02 06:52:00
2:52 AM,36.0,30.9,82,30.15,10.0,NW,6.9,-,N/A,,Clear,320,2013-11-02 07:52:00
3:52 AM,36.0,30.9,82,30.17,10.0,NW,6.9,-,N/A,,Clear,310,2013-11-02 08:52:00
4:52 AM,34.0,30.0,85,30.18,10.0,NW,6.9,-,N/A,,Clear,310,2013-11-02 09:52:00
5:52 AM,37.0,30.0,76,30.20,10.0,NW,11.5,-,N/A,,Clear,310,2013-11-02 10:52:00
6:52 AM,36.0,28.9,76,30.23,10.0,NW,9.2,-,N/A,,Clear,310,2013-11-02 11:52:00
7:52 AM,36.0,28.9,76,30.24,10.0,NW,9.2,-,N/A,,Clear,320,2013-11-02 12:52:00
8:52 AM,37.9,30.0,73,30.26,10.0,NW,8.1,-,N/A,,Clear,310,2013-11-02 13:52:00
9:52 AM,44.1,30.9,60,30.29,10.0,NW,12.7,-,N/A,,Clear,310,2013-11-02 14:52:00
10:52 AM,50.0,32.0,50,30.28,10.0,NW,11.5,-,N/A,,Clear,310,2013-11-02 15:52:00
11:52 AM,55.0,30.0,38,30.27,10.0,WNW,11.5,-,N/A,,Clear,300,2013-11-02 16:52:00
12:52 PM,57.9,26.1,30,30.27,10.0,North,5.8,-,N/A,,Clear,360,2013-11-02 17:52:00
1:52 PM,59.0,25.0,27,30.24,10.0,NNW,6.9,-,N/A,,Clear,340,2013-11-02 18:52:00
2:52 PM,60.1,27.0,28,30.21,10.0,WNW,5.8,-,N/A,,Clear,300,2013-11-02 19:52:00
3:52 PM,61.0,26.1,26,30.18,10.0,Variable,3.5,-,N/A,,Clear,0,2013-11-02 20:52:00
4:52 PM,59.0,25.0,27,30.17,10.0,Calm,Calm,-,N/A,,Clear,0,2013-11-02 21:52:00
5:52 PM,57.0,28.0,33,30.17,10.0,South,5.8,-,N/A,,Clear,170,2013-11-02 22:52:00
6:52 PM,46.9,32.0,56,30.16,10.0,SE,5.8,-,N/A,,Clear,130,2013-11-02 23:52:00
7:52 PM,48.0,32.0,54,30.16,10.0,SSE,6.9,-,N/A,,Clear,150,2013-11-03 00:52:00
8:52 PM,45.0,33.1,63,30.15,10.0,SSE,8.1,-,N/A,,Clear,150,2013-11-03 01:52:00
9:52 PM,46.0,32.0,58,30.13,10.0,SSE,10.4,-,N/A,,Clear,150,2013-11-03 02:52:00
10:52 PM,45.0,32.0,60,30.12,10.0,SSE,8.1,-,N/A,,Clear,160,2013-11-03 03:52:00
11:52 PM,43.0,33.1,68,30.11,10.0,SSE,9.2,-,N/A,,Clear,160,2013-11-03 04:52:00